Back to catalog

SCOUT A R/B

AlivePO
NORAD 2811·ROCKET BODY·🇺🇸 United States

Launched May 18, 1967 from Vandenberg Space Force Base

Loading…

Next Passes (next 24 hours)

TLE

FreshSource: Space-Track

Epoch: Sep 14, 2026, 05:09 UTC

1 02811U 67048B   26257.21464561  .00000072  00000-0  97682-4 0  9993
2 02811  89.6838 348.0249 0021488 101.7571 287.0132 13.49340863918519

Track SCOUT A R/B in real time with AllMySat

Download on the App Store